Current Version              Previous Version:    01  02  03  04  05  06  07  08  09  10  11  12  13  14  15  16  17  18  19  20  21  22  23  24  25  26  27  28  29  30  
   31  32  33  34  35  36  37  38  39  40  41  42  43  44  45  46  47  48  49  50  51  52  53  54  55  56  57  58  59  60  

[Printable]
647
ASUS44 KLUB 250010
RWRTX
WEST TEXAS WEATHER ROUNDUP
NATIONAL WEATHER SERVICE LUBBOCK TX
700 PM CDT THU APR 24 2014

NOTE: "FAIR" INDICATES FEW OR NO CLOUDS BELOW 12,000 FEET WITH NO
SIGNIFICANT WEATHER AND/OR OBSTRUCTIONS TO VISIBILITY.

TXZ004-006>008-010-012-014-016-OKZ002-250100-
TEXAS PANHANDLE/OKLAHOMA PANHANDLE

CITY           SKY/WX    TMP DP  RH WIND       PRES   REMARKS
AMARILLO       MOSUNNY   71  13  10 W6        29.96S
BORGER         MOSUNNY   73  16  11 W9        29.94S
CANADIAN       MOSUNNY   74  20  13 N9        29.91S
DALHART        MOSUNNY   70  14  11 S14       29.95F
DUMAS          MOSUNNY   69  16  13 CALM      29.95S
GUYMON         MOSUNNY   72  18  13 W7        29.91F
HEREFORD       MOSUNNY   73  13  10 SW3       29.96F
PAMPA          MOSUNNY   70  16  13 NW9       29.95S
PERRYTON       MOSUNNY   70  20  15 NW9       29.93R
$$

TXZ026-029-035-045-048-250100-
SOUTHERN PANHANDLE/SOUTH PLAINS/ROLLING PLAINS

CITY           SKY/WX    TMP DP  RH WIND       PRES   REMARKS
CHILDRESS      SUNNY     77  29  17 N10       29.92R
SEMINOLE       MOSUNNY   76  26  16 CALM      29.99S
LUBBOCK        PTSUNNY   73  21  14 CALM      29.97R
PLAINVIEW      MOSUNNY   71  19  14 NW5       29.96R
SNYDER         SUNNY     78  21  12 N3        29.95S
$$

TXZ052-054-060>062-072-078-127-140-154-169-250100-
PERMIAN BASIN/CONCHO VALLEY/BIG COUNTRY/EDWARDS PLATEAU

CITY           SKY/WX    TMP DP  RH WIND       PRES   REMARKS
ABILENE        SUNNY     80  31  16 N10       29.91S
BIG SPRING     SUNNY     82  27  13 SW7       29.97S
BRADY          SUNNY     82  34  17 NW10      29.91R
BROWNWOOD      SUNNY     81  32  17 N13       29.90R
JUNCTION       MOSUNNY   86  27  11 N12       29.89R
MIDLAND        SUNNY     81  26  13 CALM      29.96S
ODESSA         SUNNY     81  21  11 MISG      29.97S
SAN ANGELO     SUNNY     84  27  12 N9        29.90S
SONORA         SUNNY     82  25  12 N8        29.92S
SWEETWATER     SUNNY     80  25  13 N7        29.97R
WINK           SUNNY     82  21  10 VRB5      29.93S
$$

TXZ055-058-074-075-080-082-250100-
FAR WEST/SOUTHWEST MOUNTAINS/TRANS PECOS

CITY           SKY/WX    TMP DP  RH WIND       PRES   REMARKS
ALPINE         SUNNY     79  16   9 E8        30.07S
DRYDEN           N/A     91  17   6 N9G20     29.88S
EL PASO        MOSUNNY   80  11   7 W9        29.96S
FORT STOCKTON  SUNNY     82  19   9 N8        29.95F
GUADALUPE PASS SUNNY     75  11   8 SW12      30.06S
MARFA          SUNNY     79  19  11 W6        30.06S
PECOS          SUNNY     82  27  13 E6        29.93S
PRESIDIO       FAIR      89  17   7 CALM      29.89S
$$

TXZ014-016-019-021>030-083-250100
TEXAS TECH WEST TEXAS MESONET/TEXAS PANHANDLE/NORTHERN SOUTH PLAINS

CITY           SKY/WX    TMP DP  RH WIND       PRES   REMARKS
ABERNATHY 5ENE   N/A     72  20  14 W5        29.97S
AMARILLO 9NNE    N/A     71  16  12 W3        29.95S
AMARILLO 7SSE    N/A     71  18  13 SW1       29.97S
AMHERST 1NE      N/A     71  17  13 W3        29.98S
BOOTLEG 11WNW    N/A     68  24  18 S10       29.98F
CANADIAN 6E      N/A     73  25  16 NW7       29.90S
CAPROCK CYN SP   N/A     76  19  12 W3        29.93S
CHILDRESS 2NNE   N/A     76  28  17 NW8       29.91S
CLARENDON 2WSW   N/A     70  21  15 NW6       29.94S
CLAUDE 12SW      N/A     71  18  13 W3        29.96S
DIMMITT 2NE      N/A     72  17  12 SW7       29.97S
FLOYDADA 2NNE    N/A     72  15  11 NW6       29.96S
FRIONA 2NE       N/A     71  18  13 S7        29.98S
GOODLETT 3W      N/A     76  30  18 N9        29.90R
HART 3N          N/A     71  20  14 W6        29.97F
HEREFORD 2NW     N/A     71  16  12 W2        29.96F
MCLEAN 1E        N/A     70  22  16 NW8       29.93R
MEMPHIS 1NE      N/A     75  23  14 N6        29.91S
MULESHOE 2SSW    N/A     71  19  13 W3        29.98S
OLTON 6S         N/A     71  18  13 SW1       29.98S
PALO DURO SP     N/A     71  18  13 N2        29.97S
PAMPA 2E         N/A     70  18  13 NW6       29.94S
PLAINVIEW 1S     N/A     72  19  13 W5        29.96S
SILVERTON 7ESE   N/A     73  18  12 NW7       29.95S
TULIA 2ENE       N/A     73  18  12 W3        29.96S
TURKEY 2WSW      N/A     76  19  11 W2        29.92R
UMBARGER 3NNE    N/A     70  18  13 CALM      29.96F
$$

TXZ033>036-039>041-045>048-250100
TEXAS TECH WEST TEXAS MESONET/SOUTH PLAINS

CITY           SKY/WX    TMP DP  RH WIND       PRES   REMARKS
AIKEN 3WSW       N/A     72  23  16 NW3       29.97S
ANDREWS 2NE      N/A     79  22  12 N6        29.98S
ANTON 6SSW       N/A     73  20  13 SW3       29.97S
BROWNFIELD 2S    N/A     74  20  13 N2        29.97F
DENVR CTY 7WNW   N/A     73  21  13 NW2       29.98F
GAIL 2ESE        N/A     79  22  12 NW3       29.94S
LAMESA 2SE       N/A     76  25  14 N6        29.97F
LEVELLAND 4S     N/A     73  17  11 SW2       29.98S
LUBBOCK 3WNW     N/A     74  19  12 W6        29.97S
MORTON 1ENE      N/A     71  19  13 SW5       29.98F
ODONNELL 1N      N/A     76  19  11 NW5       29.97R
PLAINS 3N        N/A     74  21  14 NW3       29.99S
RALLS 1SE        N/A     74  20  13 W5        29.97S
REESE CENTER     N/A     73  17  12 W7        29.97S
SEAGRAVES 1SW    N/A     76  23  14 NW3       29.98S
SEMINOLE 2NNE    N/A     77  24  14 W3        29.98S
SLATON 2NE       N/A     74  19  12 NW2       29.97S
SNYDER 3E        N/A     79  24  12 W5        29.94S
SUNDOWN 8SW      N/A     74  19  12 N1        29.98S
TAHOKA 3NNE      N/A     74  19  13 NW5       29.97S
WOLFFORTH 6SSW   N/A     74  17  11 NW2       29.98S
$$

TXZ031-032-036>038-042>044-250100-
TEXAS TECH WEST TEXAS MESONET/ROLLING PLAINS

CITY           SKY/WX    TMP DP  RH WIND       PRES   REMARKS
ASPERMONT 3NE    N/A     80  30  16 N6        29.91S
FLUVANNA 3WNW    N/A     77  20  12 N7        29.96R
GRAHAM 5SSW      N/A     76  18  11 NW5       29.96S
GUTHRIE 10WSW    N/A     78  26  14 N9        29.91S
HASKELL 1NW      N/A     74  36  24 N8        29.91R
JAYTON 1SSE      N/A     79  25  13 N6        29.92R
KNOX CITY 3NW    N/A     80  27  14 N6        29.90S
LK A HENRY 1NW   N/A     78  23  13 NW5       29.93R
NORTHFIELD 1S    N/A     78  23  13 NE5       29.91S
ODELL 4ENE       N/A     76  31  18 NW10      29.90R
PADUCAH 10SW     N/A     77  24  14 N9        29.91S
POST 1NE         N/A     76  21  12 W6        29.95R
RRING SPRGS 3N   N/A     75  22  13 N7        29.93S
SEYMOUR 3NW      N/A     76  35  22 NW12      29.90R
SPUR 1W          N/A     78  20  11 NW8       29.92R
WEINERT 2NNE     N/A     77  34  20 N9        29.91R
WHITE RVR 6NE    N/A     76  18  11 NW7       29.95R
$$

TXZ052-054-060>062-072-078-127-140-154-169-250100-
TEXAS TECH WEST TEXAS MESONET/PERMIAN BASIN/
CONCHO VALLEY/BIG COUNTRY/EDWARDS PLATEAU

CITY           SKY/WX    TMP DP  RH WIND       PRES   REMARKS
COYANOSA 2N      N/A     83  22  11 NW1       29.93F
JUNCTION 1SSW    N/A     85  32  15 N9        29.90R
MERTZON 3NNE     N/A     82  29  14 N8        29.94R
SAN ANGELO 7NW   N/A     83  24  11 N7        29.92R
STRLNG CT 4WSW   N/A     81  28  14 N6        29.94S
ST LAWRNCE 5SW   N/A     80  23  12 NW5       29.95S
SWEETWATR 11SW   N/A     79  32  18 W2        29.95S
WALL 1E          N/A     83  27  13 N6        29.92S
$$

TXZ055-058-074-075-080-082-250100-
TEXAS TECH WEST TEXAS MESONET/FAR WEST/SOUTHWEST MOUNTAINS/TRANS PECOS

CITY           SKY/WX    TMP DP  RH WIND       PRES   REMARKS
PRSMN GAP BBNP   N/A     90  18   7 E5        29.88S
$$